Погода в Боровичах

Россия / Курганская область     55°03′47″N   62°34′34″E
темп.,
°C
ветер,
м/с
пор.,
м/с
влажн.,
%
обл.,
%
осадки,
мм/ч
давл.,
гПа
погр.,
м
17 мая, пн
пн1723:00+22зюз4949100 1.0 1019164
02:00+19зюз355997 0.0 101973
05:00+17зюз49655 0.0 1020135
08:00+23зюз45465 0.0 1020261
11:00+29з46275 0.0 10191666
14:00+31з692155 0.0 10173654
17:00+30зсз582594 0.4 10162876
20:00+26зсз33384 0.0 101638
18 мая, вт
вт1823:00+22зюз45456 0.0 101668
02:00+20з345291 0.0 101666
05:00+17зсз3567100 0.3 101680
08:00+20зсз41161100 0.0 1016414
11:00+25сз6845100 0.0 10151262
14:00+27ссз79311 0.0 10142620
17:00+23ссв11114918 0.0 1014827
20:00+19ссв711574 0.0 1017965
19 мая, ср
ср1923:00+14св812670 0.0 1021657
02:00+11ссв6117916 0.0 1022651
05:00+10ссв511740 0.0 1023495
08:00+13св68615 0.0 1025834
11:00+17св674293 0.0 10251311
14:00+19св55350 0.0 10241547
17:00+20св44345 0.0 10241570
20:00+17всв334741 0.0 102440
20 мая, чт
чт2023:00+14в11514 0.0 102411
02:00+12ююв22575 0.0 102514
05:00+11юз23625 0.0 102521
08:00+16зюз35460 0.0 1025365
11:00+21зюз34340 0.0 10241241
14:00+24зюз44280 0.0 10221625
17:00+25зюз44260 0.0 10211687
20:00+21юз34410 0.0 102063
21 мая, пт
пт2123:00+17зюз45410 0.0 102050
02:00+15зюз45460 0.0 102065
05:00+14з33551 0.0 102029
08:00+20зсз33480 0.0 1020278
11:00+25сз33351 0.0 10191181
14:00+27сз332799 0.0 10192010
17:00+28ссз332738 0.0 10182233
20:00+24ссв33402 0.0 101828